Home > Weather > Huntsville > Past weeks

Flag for USA Past Weather in Huntsville, Alabama, USA — Yesterday and Last 2 Weeks

Now
78 °F

Clear.


Feels Like: 81 °F
Forecast: 74 / 95 °F
Wind: 5 mph from Southeast

Location: Huntsville International / Jones Field

Current Time: Jul 25, 2016 at 1:24:23 AM

Latest Report: Jul 25, 2016 at 12:53 AM


Visibility: 10 mi

Pressure: 29.97 "Hg

Humidity: 82%

Dew Point: 72 °F

Location of HuntsvilleLocation

Past Weather in Huntsville — Graph

°F

Huntsville Temperature Yesterday

Maximum temperature yesterday: 95 °F (at 3:53 PM)
Minimum temperature yesterday: 75 °F (at 4:53 AM)
Average temperature yesterday: 84 °F

High & Low Weather Summary for the Past Weeks

 TemperatureHumidityPressure
High99 °F (Jul 21, 4:53 PM)96% (Jul 19, 7:53 PM)30.26 "Hg (Jul 19, 7:53 PM)
Low70 °F (Jul 11, 4:53 AM)33% (Jul 21, 5:53 PM)29.92 "Hg (Jul 23, 4:53 PM)
Average82 °F69%30.07 "Hg
* Reported Jul 9 11:53 PM — Jul 24 11:53 PM, Huntsville, Weather by CustomWeather, © 2016

Note: Actual official high and low records may vary slightly from our data, if they occured in-between our weather recording intervals... More about our weather records

Advertising

Huntsville Weather History for the Previous 24 Hours

Scroll right to see more
 ConditionsComfort  
Time TempWeatherWind HumidityBarometerVisibility
11:53 PM
Sun, Jul 24
79 °FClear.3 mph79%29.99 "Hg10 mi
10:53 PM80 °FClear.No wind74%30.00 "Hg10 mi
9:53 PM81 °FPassing clouds.3 mph69%30.00 "Hg10 mi
8:53 PM81 °FScattered clouds.3 mph69%30.00 "Hg10 mi
7:53 PM84 °FScattered clouds.5 mph63%29.98 "Hg10 mi
6:53 PM91 °FBroken clouds.5 mph52%29.96 "Hg10 mi
5:53 PM94 °FBroken clouds.7 mph48%29.94 "Hg10 mi
4:53 PM95 °FScattered clouds.8 mph44%29.94 "Hg10 mi
3:53 PM95 °FBroken clouds.5 mph43%29.95 "Hg10 mi
2:53 PM91 °FScattered clouds.7 mph54%29.97 "Hg10 mi
1:53 PM91 °FBroken clouds.9 mph52%29.98 "Hg10 mi
12:53 PM92 °FPartly sunny.9 mph47%30.00 "Hg10 mi
11:53 AM91 °FBroken clouds.6 mph50%30.01 "Hg10 mi
10:53 AM90 °FPartly sunny.No wind54%30.02 "Hg10 mi
9:53 AM87 °FPartly sunny.No wind61%30.02 "Hg10 mi
8:53 AM83 °FBroken clouds.7 mph70%30.02 "Hg10 mi
7:53 AM80 °FPassing clouds.6 mph76%30.02 "Hg10 mi
6:53 AM76 °FScattered clouds.5 mph85%30.00 "Hg10 mi
5:53 AM75 °FPassing clouds.3 mph85%29.98 "Hg10 mi
4:53 AM75 °FClear.3 mph85%29.98 "Hg10 mi
3:53 AM76 °FClear.6 mph82%29.98 "Hg10 mi
2:53 AM76 °FClear.5 mph82%29.97 "Hg10 mi
1:53 AM77 °FClear.3 mph79%29.98 "Hg10 mi
Weather by CustomWeather, © 2016

See weather overviewHow to use our weather pages